Location: Marcé
(47.5801°N, 0.3280°W)
Time: 23:05:19
(UTC+01:00)

Transit 2A - Pass Details

Date: 04 December 2021
Orbit: 591 x 967 km, 66.7° (Epoch: 16 January)

Event Time Altitude Azimuth Distance (km) Brightness Sun altitude
Rises 01:18:41 0° 211° (SSW) 3,296 - -64.1°
Reaches altitude 10° 01:21:00 10° 211° (SSW) 2,424 - -64.0°
Maximum altitude 01:26:40 87° 122° (ESE) 894 - -63.7°
Drops below altitude 10° 01:32:54 10° 35° (NE) 2,656 - -63.3°
Sets 01:35:32 0° 35° (NE) 3,633 - -63.2°
